Simultaneous Nadir Overpasses (SNOs) Predictions

Prediction of SNOs between FY3D and TERRA Satellite Orbit:

Table of predicted SNOs for the next 14.0 days since TLE Epoch: 6/11/2022
Index Date (FY3D) Time (FY3D) Lat,Lon (FY3D) SZA (FY3D ) Date (TERRA) Time (TERRA) Lat,Lon (TERRA) SZA (TERRA ) Distance(km) Time Diff (sec)
1 06/11/2022 06:26:20 -71.55, -96.81 131.64 06/11/2022 06:27:12 -71.52, -96.87 131.67 3.36 52
2 06/11/2022 07:17:05 71.46, 70.65 48.27 06/11/2022 07:16:38 71.48, 70.71 48.29 2.92 27
3 06/13/2022 21:53:26 71.56,-148.58 48.21 06/13/2022 21:54:09 71.54,-148.60 48.19 2.27 43
4 06/13/2022 22:44:08 -71.47, 18.90 131.88 06/13/2022 22:43:37 -71.48, 18.93 131.88 1.26 31
5 06/16/2022 13:20:29 -71.57, 159.66 131.89 06/16/2022 13:21:07 -71.58, 159.69 131.88 1.57 38
6 06/16/2022 14:11:14 71.49, -32.88 48.03 06/16/2022 14:10:34 71.48, -32.83 48.02 2.04 40
7 06/19/2022 04:47:35 71.59, 107.88 48.07 06/19/2022 04:48:04 71.57, 107.92 48.04 2.72 29
8 06/19/2022 05:38:17 -71.45, -84.56 132.08 06/19/2022 05:37:34 -71.45, -84.64 132.07 2.78 43
9 06/21/2022 20:14:38 -71.56, 56.19 131.98 06/21/2022 20:15:03 -71.59, 56.18 131.95 3.25 25
10 06/21/2022 21:05:23 71.47,-136.34 47.93 06/21/2022 21:04:30 71.48,-136.35 47.94 1.13 53
11 06/24/2022 10:51:14 -72.44,-164.55 131.05 06/24/2022 10:52:20 -72.35,-161.90 131.15 89.60 66
12 06/24/2022 11:41:44 71.58, 4.40 48.08 06/24/2022 11:41:59 71.60, 4.45 48.10 2.71 15
13 06/24/2022 12:32:27 -71.50, 171.87 132.01 06/24/2022 12:31:29 -71.49, 171.90 132.01 1.47 58



Historial Predications of SNOs between FY3D and TERRA
